Regional Weather Roundup
Issued by NWS

Home | Current Version | Previous Version | Graphics & Text | Print | Product List | Glossary On
Versions: 1 2 3 4 5 6 7 8 9 10 11 12 13 14 15 16 17 18 19 20 21 22 23 24 25 26 27 28 29 30 31 32 33 34 35 36 37 38 39 40 41 42 43 44 45 46 47 48 49 50
000
ASUS44 KMEG 272110
RWRTN
TENNESSEE HOURLY STATE WEATHER ROUNDUP
NATIONAL WEATHER SERVICE MEMPHIS TN
300 PM CST TUE JAN 27 2015

TNZ002-004-019-021-049-052-054-088>092-272200-
WEST TENNESSEE

CITY           SKY/WX    TMP DP  RH WIND       PRES   REMARKS
MEMPHIS INTL   SUNNY     56  35  45 N7        30.12R
NWS MEMPHIS      N/A     55 N/A N/A MISG        N/A
JACKSON        SUNNY     51  32  48 N14       30.12R
DYERSBURG      SUNNY     48  27  43 N12       30.15R
UNION CITY     MOSUNNY   43  34  70 NW12      30.13R
PARIS          PTSUNNY   43  28  56 NW8       30.12S
LEXINGTON      SUNNY     46  30  53 NW9       30.09S
SAVANNAH         N/A     52  34  50 N9        30.10R
$$

TNZ008-025-027-028-033-062-065-066-272200-
NORTH MIDDLE TENNESSEE

CITY           SKY/WX    TMP DP  RH WIND       PRES   REMARKS
NASHVILLE      CLOUDY    39  30  70 NW9       30.11R WCI  33
CLARKSVILLE    CLOUDY    38  30  73 N12       30.13R WCI  30
SMYRNA         CLOUDY    39  31  73 NW10      30.12R WCI  32
COOKEVILLE     PTSUNNY   36  32  87 NW5       30.05R WCI  32
CROSSVILLE     CLOUDY    33  29  85 NW8       30.02R WCI  26
$$

TNZ061-075-076-078-094-096-097-272200-
SOUTH MIDDLE TENNESSEE

CITY           SKY/WX    TMP DP  RH WIND       PRES   REMARKS
FAYETTEVILLE   SUNNY     45  28  53 N16G26    30.04S
TULLAHOMA      CLOUDY    37  30  75 N8        30.06R WCI  31
WINCHESTER     CLOUDY    39  30  70 N8        30.06R WCI  34
MCMINNVILLE    CLOUDY    36  34  93 N7        30.06R WCI  30
COLUMBIA       MOSUNNY   46  34  61 N10       30.05S
SHELBYVILLE    CLOUDY    39  34  81 N9        30.08R WCI  33
$$

TNZ017-018-042-046-047-272200-
NORTHEAST TENNESSEE

CITY           SKY/WX    TMP DP  RH WIND       PRES   REMARKS
TRI CITIES     PTSUNNY   34  21  59 NW9       29.96R WCI  27
ELIZABETHTON   CLOUDY    30  21  69 W8        29.94R WCI  23
$$

TNZ012-013-036-069-073-074-272200-
CENTRAL EAST TENNESSEE

CITY           SKY/WX    TMP DP  RH WIND       PRES   REMARKS
KNOXVILLE      CLOUDY    35  28  75 CALM      30.03R
OAK RIDGE      CLOUDY    38  28  67 N5        30.05R WCI  34
GATLINBURG     CLOUDY    34  27  75 W5        30.02R WCI  30
MORRISTOWN     MOCLDY    34  28  80 NW5       30.00R WCI  30
$$

TNZ083-085-099-272200-
SOUTHEAST TENNESSEE

CITY           SKY/WX    TMP DP  RH WIND       PRES   REMARKS
CHATTANOOGA    PTSUNNY   41  31  67 N12       30.05R
$$

SKY/WX REPORTED AS FAIR MEANS FEW OR NO CLOUDS BELOW
12 THOUSAND FEET.



USA.gov is the U.S. government's official web portal to all federal, state and local government web resources and services.